SB KEPS @ AMSAT $ORB11159.N 2Line Orbital Elements 11159.AMSAT
HR AMSAT ORBITAL ELEMENTS FOR AMATEUR SATELLITES IN NASA FORMAT FROM WA5QGD FORT WORTH,TX June 8, 2011 Send Subscribe/unsubscribe to KEPS at http://www.amsat.org/mailman/listinfo/keps BID: ORB11159.N
DECODE 2-LINE ELSETS WITH THE FOLLOWING KEY: 1 AAAAAU 00 0 0 BBBBB.BBBBBBBB .CCCCCCCC 00000-0 00000-0 0 DDDZ 2 AAAAA EEE.EEEE FFF.FFFF GGGGGGG HHH.HHHH III.IIII JJ.JJJJJJJJKKKKKZ KEY: A-CATALOGNUM B-EPOCHTIME C-DECAY D-ELSETNUM E-INCLINATION F-RAAN G-ECCENTRICITY H-ARGPERIGEE I-MNANOM J-MNMOTION K-ORBITNUM Z-CHECKSUM
TO ALL RADIO AMATEURS BT
AO-07 1 07530U 74089B 11159.53702851 -.00000027 00000-0 10000-3 0 985 2 07530 101.3913 166.4189 0011699 297.6727 062.3154 12.53582714673102 FO-29 1 24278U 96046B 11158.95881924 -.00000058 00000-0 -19774-4 0 06039 2 24278 098.5424 304.3266 0349644 281.1787 075.0241 13.52961135731214 SO-33 1 25509U 98061B 11158.72978890 .00000331 00000-0 53035-4 0 9842 2 25509 031.4336 297.8071 0353823 159.0082 202.5469 14.28412579658927 RS-22 1 27939U 03042A 11159.60884404 .00000299 00000-0 66160-4 0 3346 2 27939 097.8477 014.0176 0014104 017.6287 342.5429 14.63593337411081 VO-52 1 28650U 05017B 11158.64300926 .00000857 00000-0 11356-3 0 08156 2 28650 097.6410 202.2006 0026545 190.5444 169.5203 14.82077359329333 SO-67 1 35870U 09049F 11159.86045204 .00001931 00000-0 90670-4 0 9160 2 35870 097.2811 203.4970 0003847 067.6263 019.1650 15.20769942 95674 HO-68 1 36122U 09072B 11159.64977574 -.00000045 00000-0 00000 0 0 4510 2 36122 100.4154 220.5895 0007179 243.0424 116.9962 13.16286628 71112 UO-11 1 14781U 84021B 11158.67365788 .00000560 00000-0 81084-4 0 05837 2 14781 098.0062 215.4140 0009361 162.1178 198.0356 14.79980562464388 AO-16 1 20439U 90005D 11159.56699121 .00000052 00000-0 35134-4 0 2044 2 20439 098.3840 109.4735 0010571 184.5739 175.5346 14.31922808116380 LO-19 1 20442U 90005G 11158.87930830 .00000122 00000-0 60749-4 0 1188 2 20442 098.3462 113.1970 0011712 180.0258 180.0927 14.32148727116468 AO-27 1 22825U 93061C 11159.82011337 .00000066 00000-0 43010-4 0 8364 2 22825 098.5321 104.4466 0007669 304.8277 055.2189 14.29349935922993 IO-26 1 22826U 93061D 11159.82109403 .00000065 00000-0 42297-4 0 5808 2 22826 098.5260 104.9261 0008036 298.8556 061.1818 14.29611802923110 GO-32 1 25397U 98043D 11159.40535755 .00000031 00000-0 31603-4 0 4986 2 25397 098.3242 152.4368 0001044 358.5182 001.6015 14.23210266670717 NO-44 1 26931U 01043C 11158.94665621 .00000284 00000-0 14289-3 0 07735 2 26931 067.0522 007.3378 0006762 260.1028 099.9332 14.29663507505607 SO-50 1 27607U 02058C 11158.82427653 .00000261 00000-0 62055-4 0 04862 2 27607 064.5586 356.1272 0071501 323.3095 036.3165 14.71754006454713 CO-55 1 27844U 03031E 11159.51498684 .00000137 00000-0 83482-4 0 1277 2 27844 098.7047 168.3411 0008920 221.9990 138.0496 14.20814475411684 CO-57 1 27848U 03031J 11159.24574453 .00000140 00000-0 85497-4 0 765 2 27848 098.7117 167.2623 0008722 226.5942 133.4498 14.20593852411591 AO-51 1 28375U 04025K 11158.59662512 .00000065 00000-0 31990-4 0 9894 2 28375 098.0975 137.5475 0084732 098.6826 262.3984 14.40759237364683 CP3 1 31129U 07012N 11158.50488684 .00000281 00000-0 74948-4 0 08902 2 31129 097.8995 183.2777 0101335 210.4514 149.0796 14.52489461219439 CO-65 1 32785U 08021C 11158.69336211 .00001070 00000-0 14123-3 0 00121 2 32785 097.8496 222.7681 0014282 202.7771 157.2790 14.82011370168138 PRISM 1 33493U 09002B 11159.85401067 .00001489 00000-0 19526-3 0 6581 2 33493 098.1245 288.3442 0021075 070.0564 290.2927 14.81717242128280 SOHLA-1 1 33496U 09002E 11158.92672727 .00000238 00000-0 48351-4 0 04559 2 33496 098.0801 268.8523 0007094 145.2640 214.9026 14.69621554127129 TISAT-1 1 36799U 10035E 11159.82414608 .00000997 00000-0 13695-3 0 9333 2 36799 098.1023 227.9912 0014214 307.6950 052.2972 14.80569162 49072 STUDSAT 1 36801U 10035G 11158.88670225 .00002579 00000-0 34243-3 0 02110 2 36801 098.1055 226.9077 0012459 298.8740 061.1219 14.80640357048921 RAX 1 37223U 0 11152.36844328 .00000635 00000-0 96781-4 0 01738 2 37223 071.9713 073.6151 0021634 311.5989 048.3343 14.77415682028541 OOREOS 1 37224U 10062C 11153.29456974 .00000492 00000-0 77478-4 0 01796 2 37224 071.9726 071.8135 0020315 307.7637 052.1684 14.77036357028673 FO-69 1 37227U 0 11159.18289523 .00000328 00000-0 54857-4 0 00487 2 37227 071.9711 059.1227 0018321 295.1692 064.7569 14.76594320007997 NANOSALD 1 37361U 0 11155.31761303 .00143778 00000-0 12120-1 0 02245 2 37361 071.9451 063.3952 0023917 165.4346 194.7968 14.97151310020196 FO-70 1 37380U 0 11159.19513046 .00000361 00000-0 59912-4 0 01832 2 37380 071.9748 059.1921 0019021 292.8241 067.0911 14.76361184029531 NOAA-10 1 16969U 86073A 11159.51814692 .00000117 00000-0 65608-4 0 5262 2 16969 098.6179 189.4227 0011322 250.4932 109.5036 14.27464356286417 NOAA-11 1 19531U 88089A 11159.29036984 .00000252 00000-0 15295-3 0 5271 2 19531 098.7512 246.9215 0010882 209.9895 150.0670 14.14918385171498 NOAA-12 1 21263U 91032A 11159.66502639 .00000140 00000-0 77827-4 0 242 2 21263 098.7511 177.5243 0011685 208.1722 151.8826 14.25716465 43198 MET-3/5 1 21655U 91056A 11158.86574964 .00000051 00000-0 10000-3 0 1290 2 21655 082.5583 057.3624 0013335 175.0617 185.0634 13.17026745952493 MET-2/21 1 22782U 93055A 11159.50661006 .00000020 00000-0 47643-5 0 1166 2 22782 082.5472 329.7649 0023681 120.9671 239.3819 13.83658416897359 OKEAN-4 1 23317U 94066A 11159.79827204 .00000598 00000-0 70145-4 0 5772 2 23317 082.5405 020.9741 0022789 142.4661 217.8147 14.83081239899305 NOAA-14 1 23455U 94089A 11159.68483272 .00000125 00000-0 89554-4 0 5108 2 23455 098.8518 242.4046 0008814 308.6873 051.3511 14.13822124847876 NOAA-15 1 25338U 98030A 11159.52819077 .00000050 00000-0 39832-4 0 8440 2 25338 098.6535 145.7891 0011597 114.9330 245.3056 14.24920430679497 RESURS 1 25394U 98043A 11159.88775095 .00000003 00000-0 18767-4 0 8156 2 25394 098.3007 163.3681 0000353 273.7193 086.3947 14.24234527671121 FENGYUN1 1 25730U 99025A 11159.78974543 .00000720 00000-0 44289-3 0 3449 2 25730 098.8161 121.1714 0024914 340.8057 019.2166 14.08623752621884 OKEAN-0 1 25860U 99039A 11158.92827278 .00000270 00000-0 48749-4 0 03485 2 25860 097.8844 125.6294 0001769 049.5282 310.6080 14.73789758639291 NOAA-16 1 26536U 00055A 11159.50660738 .00000094 00000-0 75572-4 0 3261 2 26536 099.1387 189.8713 0011311 060.5979 299.6334 14.12622477552139 NOAA-17 1 27453U 02032A 11159.39487265 .00000032 00000-0 31886-4 0 3156 2 27453 098.3787 199.5087 0011919 170.1157 190.0258 14.24279398465400 NOAA-18 1 28654U 05018A 11159.38097154 -.00000140 00000-0 -52501-4 0 7951 2 28654 098.9956 110.5069 0014999 126.9643 233.2908 14.11479573311686 NOAA-19 1 33591U 09005A 11159.37621903 .00000288 00000-0 18392-3 0 9863 2 33591 098.8260 099.6789 0014323 005.3229 354.8085 14.11174119120149 HUBBLE 1 20580U 90037B 11159.14414120 .00000933 00000-0 57954-4 0 7782 2 20580 028.4698 075.5244 0002924 024.1008 335.9773 15.01382238958296 ISS 1 25544U 98067A 11160.01603044 .00024946 00000-0 17177-3 0 4993 2 25544 051.6450 202.4728 0001007 306.1549 127.2024 15.74467854719628 CO-58 1 28895U 05043F 11159.15653263 .00000350 00000-0 82032-4 0 8932 2 28895 097.9670 035.8943 0016685 248.9127 111.0286 14.60110827298922 FALCON 1 30776U 07006E 11158.95288657 .00002206 00000-0 15669-3 0 01118 2 30776 035.4336 043.1273 0001967 340.8010 019.2629 15.04651204233654 MAST 1 31126U 07012K 11159.50090575 .00000369 00000-0 93301-4 0 1788 2 31126 097.8954 187.2181 0093945 197.1353 162.6673 14.53754239219820 CAPE1 1 31130U 07012P 11158.51451029 .00000277 00000-0 74176-4 0 01965 2 31130 097.8978 183.0697 0101755 210.8277 148.6942 14.52397111219233 COMPASS 1 32787U 08021E 11159.70607319 .00001244 00000-0 16144-3 0 78 2 32787 097.8478 223.6798 0015035 200.3845 159.6751 14.82434289168302 AAUSAT2 1 32788U 08021F 11158.59101183 .00001121 00000-0 14560-3 0 09975 2 32788 097.8485 222.8073 0014639 203.7764 156.2815 14.82616358168150 DO-64 1 32789U 08021G 11159.68316192 .00002423 00000-0 30353-3 0 149 2 32789 097.8571 224.8663 0014953 198.2568 161.8128 14.83089546168325 CO-66 1 32791U 08021J 11159.72095794 .00000682 00000-0 92192-4 0 09 2 32791 097.8491 223.6388 0015340 198.9911 161.0720 14.82123008168253 RS-30 1 32953U 08025A 11159.53522138 .00000010 00000-0 00000 0 0 8048 2 32953 082.5002 168.1014 0020263 048.6740 311.6081 12.43013453138013 TACSAT-3 1 35001U 09028A 11159.54740688 .00018526 00000-0 33547-3 0 6115 2 35001 040.4531 225.2247 0021536 146.8115 213.4058 15.48896945115745 PHARMSAT 1 35002U 09028B 11159.57671834 .00014843 00000-0 27310-3 0 5685 2 35002 040.4691 222.7509 0023561 155.3625 204.8321 15.48508358115775 HAWKSAT1 1 35003U 09028C 11158.45809352 .00073679 00000-0 72387-3 0 06463 2 35003 040.4533 202.1373 0020218 167.4036 192.7297 15.64757653115902 CP6 1 35004U 09028D 11159.41172161 .00107909 00000-0 80262-3 0 6489 2 35004 040.4539 187.9522 0020665 180.2978 179.7776 15.71373053116138 METEOR-M 1 35865U 09049A 11159.70678479 .00000176 00000-0 10000-3 0 4403 2 35865 098.7059 214.9443 0003424 057.2120 302.9344 14.21839302 89380 RS-38 1 35869U 09049E 11159.70790274 .00000177 00000-0 10000-3 0 4338 2 35869 098.7026 214.9817 0005632 057.4822 302.6866 14.22013220 89398 /EX
participants (1)
-
Ray Hoad